Regional Weather Roundup
Issued by NWS Cleveland, OH

Home | Current Version | Previous Version | Graphics & Text | Print | Product List | Glossary On
Versions: 1 2 3 4 5 6 7 8 9 10 11 12 13 14 15 16 17 18 19 20 21 22 23 24 25 26 27 28 29 30 31 32 33 34 35 36 37 38 39 40 41 42 43 44 45 46 47 48 49 50
000
ASUS41 KCLE 252010
RWRCLE
OHIO REGIONAL WEATHER ROUNDUP
NATIONAL WEATHER SERVICE WILMINGTON, OH
400 PM EDT SAT OCT 25 2014

NOTE: "FAIR" INDICATES FEW OR NO CLOUDS BELOW 12,000 FEET WITH NO
SIGNIFICANT WEATHER AND/OR OBSTRUCTIONS TO VISIBILITY.

OHZ001>008-015>018-024>027-034-035-043-044-252100-
   NORTHWEST OHIO

CITY           SKY/WX    TMP DP  RH WIND       PRES   REMARKS
DEFIANCE       SUNNY     69  48  47 W10G21    29.83F
FINDLAY        SUNNY     72  51  47 W22G35    29.81F HAZE
TOLEDO EXPRESS SUNNY     68  48  48 W17G30    29.79F
TOLEDO METCALF SUNNY     69  47  45 W22       29.79F
LIMA           SUNNY     74  51  44 W14       29.85F
$$

OHZ009>014-019>023-028>033-038-089-252100-
   NORTHEAST OHIO

CITY           SKY/WX    TMP DP  RH WIND       PRES   REMARKS
CLE-HOPKINS    SUNNY     68  54  60 W14       29.78F
CLE-LAKEFRONT  SUNNY     60  55  83 W13       29.76F
CUY CO. ARPT   SUNNY     63  55  77 NW18G26   29.77F HAZE
LORAIN-ELYRIA  LGT RAIN  70  51  51 W15G31    29.77F
ASHTABULA      MOSUNNY   63  53  70 W13G24    29.75S
AKRON-CANTON   MOSUNNY   70  52  52 W16       29.77F
WOOSTER        SUNNY     73  51  46 W15G24    29.79F
MANSFIELD      SUNNY     71  50  47 W20G28    29.80F
YOUNGSTOWN     MOSUNNY   68  52  56 W15       29.74F
$$

OHZ042-051>053-060>062-070>072-077>081-252100-
  SOUTHWEST OHIO

CITY           SKY/WX    TMP DP  RH WIND       PRES   REMARKS
CINC-COVINGTON MOSUNNY   74  55  51 W12       29.92F
CINC-LUNKEN    SUNNY     72  57  59 SW12      29.91F
HAMILTON       SUNNY     76  56  49 W9        29.91F
DAYTON         MOSUNNY   75  53  46 W20       29.89F
WRIGHT-PAT AFB SUNNY     74  54  49 W13G21    29.88S
DAYTON GENERAL SUNNY     72  55  55 W12       29.89F
WILMINGTON     SUNNY     69  54  58 W17       29.89F
$$

OHZ036-037-039>041-045>050-054>059-063>069-073>076-082>088-252100-
  CENTRAL AND SOUTHEAST OHIO

CITY           SKY/WX    TMP DP  RH WIND       PRES   REMARKS
COLUMBUS       SUNNY     72  53  51 W16       29.84F
OSU AIRPORT    SUNNY     71  54  54 W14G23    29.84F
BOLTON FIELD   SUNNY     72  55  56 SW13      29.87S
RICKENBACK AFB SUNNY     70  55  59 SW15      29.85F
NEWARK         SUNNY     72  54  53 SW10      29.83F
MARION         SUNNY     72  51  47 W13G24    29.82F HAZE
LANCASTER      SUNNY     70  55  59 W13G23    29.86F
ZANESVILLE     MOSUNNY   68  53  58 SW10G21   29.84F
NEW PHILLY     MOSUNNY   71  54  54 SW14G21   29.81F
$$



USA.gov is the U.S. government's official web portal to all federal, state and local government web resources and services.